Regional Weather Roundup
Issued by NWS Burlington, VT

Home | Current Version | Previous Version | Text Only | Print | Product List | Glossary On
Versions: 1 2 3 4 5 6 7 8 9 10 11 12 13 14 15 16 17 18 19 20 21 22 23 24 25 26 27 28 29 30 31 32 33 34 35 36 37 38 39 40 41 42 43 44 45 46 47 48 49 50
000
ASUS41 KBTV 060530
RWRBTV
VERMONT REGIONAL WEATHER ROUNDUP
NATIONAL WEATHER SERVICE BURLINGTON VT
100 AM EDT FRI MAY 06 2016

NOTE: "FAIR" INDICATES FEW OR NO CLOUDS BELOW 12,000 FEET WITH NO
SIGNIFICANT WEATHER AND/OR OBSTRUCTIONS TO VISIBILITY.

* THESE REPORTS ARE NOT UNDER NWS QUALITY CONTROL AND/OR DO NOT
  REPORT WEATHER SUCH AS PRECIPITATION AND FOG.

VTZ001>019-060600-
_____VERMONT_____


CITY           SKY/WX    TMP DP  RH WIND       PRES   REMARKS
BURLINGTON     FAIR      50  39  66 N6        29.76S
MONTPELIER     CLOUDY    48  38  68 N6        29.78S
MORRISVILLE    FAIR      46  39  76 NE6       29.78R
ST. JOHNSBURY*   N/A     50  39  66 MISG      29.73F
LYNDONVILLE*   FAIR      47  38  71 NW9       29.76S
MIDDLEBURY*    FAIR      51  40  64 N3        29.74S
RUTLAND*       FAIR      51  41  68 N5        29.73S
SPRINGFIELD    CLOUDY    51  39  63 NE5       29.72F
HIGHGATE*      FAIR      47  38  73 N5        29.78S
NEWPORT*       FAIR      45  39  80 N7        29.77F
BENNINGTON     CLOUDY    52  43  71 CALM      29.69S
SUTTON*          N/A     45 N/A N/A MISG        N/A
MT. MANSFIELD*   N/A     36 N/A N/A SW21G33     N/A  WCI  24

_____LAKE CHAMPLAIN_____


CITY           SKY/WX    TMP DP  RH WIND       PRES   REMARKS
COLCHESTER RF*   N/A     50  43  76 N14         N/A
DIAMOND ISL*     N/A     54  41  62 NW16        N/A

$$

NYZ007-026>031-035-052-083-087-060600-
_____NORTHERN NEW YORK_____


CITY           SKY/WX    TMP DP  RH WIND       PRES   REMARKS
PLATTSBURGH    CLOUDY    48  39  71 N3        29.78R
SARANAC LAKE   CLEAR     37  34  89 CALM      29.75F
MASSENA        CLEAR     44  37  76 NE3       29.81S
OGDENSBURG*    CLEAR     45  41  87 N5        29.80S
POTSDAM*       CLEAR     43  43 100 E3        29.80
WATERTOWN      CLEAR     42  39  89 E3        29.78S
FT DRUM        CLEAR     47  40  78 E3        29.77S
ALBANY         CLOUDY    53  45  74 NW5       29.71R
GLENS FALLS    CLOUDY    56  41  57 N9        29.71S

$$
NHZ002-005-011-060600-
_____NEW HAMPSHIRE_____


CITY           SKY/WX    TMP DP  RH WIND       PRES   REMARKS
LEBANON        CLOUDY    51  40  65 NE3       29.72S
KEENE          CLOUDY    48  43  81 N5        29.69F
MT WASHINGTON  FOG       36  36 100 NE24        N/A  VSB 1/2 WCI  24
PLYMOUTH       CLOUDY    47  45  94 CALM      29.71S
WHITEFIELD     CLOUDY    48  38  68 NE3       29.73F

$$

_____REGIONAL QUEBEC LOCATIONS_____


CITY           SKY/WX    TMP DP  RH WIND       PRES   REMARKS
MONTREAL       CLEAR     50  37  62 N12       29.81R
QUEBEC CITY    MOCLDY    45  37  76 E7        29.85S
SHERBROOKE     MOCLDY    45  39  81 E3        29.77F

_____REGIONAL ONTARIO LOCATIONS_____


CITY           SKY/WX    TMP DP  RH WIND       PRES   REMARKS
OTTAWA         CLEAR     50  37  62 N5        29.82S

______KEY______
VSB  - VISIBILITY IN MILES
WCI  - WIND CHILL INDEX
HX   - HEAT INDEX
$$
NNNN




USA.gov is the U.S. government's official web portal to all federal, state and local government web resources and services.